FW0810 Weather Reports


time (UTC)temp
C
wind
direction
speed
KPH
gust
KPH
rain 1hr
cm
rain 24hr
cm
rain mn
cm
humidity
%
barometer
mb
20260505051043 13 102 0.0 0.0 0.03 0.15 0.15 90 1018.1
20260505050536 13 102 0.0 0.0 0.05 0.15 0.15 90 1018.1
20260505041501 13 96 0.0 3.2 0.10 0.13 0.13 89 1018.1
20260505040959 13 95 0.0 3.2 0.10 0.13 0.13 89 1017.9
20260505040457 13 94 0.0 0.0 0.08 0.10 0.10 88 1017.9
20260505035955 13 94 0.0 0.0 0.05 0.08 0.08 88 1018.1
20260505034954 13 94 0.0 3.2 0.08 0.08 0.08 87 1018.1
20260505034455 13 95 0.0 3.2 0.05 0.05 0.05 87 1018.1
20260505033955 13 95 0.0 3.2 0.05 0.05 0.05 86 1018.1
20260505033454 13 97 0.0 3.2 0.05 0.05 0.05 86 1018.3
20260505032953 13 90 0.0 0.0 0.05 0.05 0.05 86 1018.2
20260505032451 13 90 0.0 0.0 0.05 0.05 0.05 85 1018.3
20260505031949 13 90 0.0 0.0 0.05 0.05 0.05 84 1018.3
20260505031449 13 89 0.0 0.0 0.03 0.03 0.03 83 1018.4
20260505030949 13 89 0.0 0.0 0.03 0.03 0.03 83 1018.5
20260505025945 13 91 0.0 0.0 0.03 0.03 0.03 83 1018.4
20260505025445 13 83 0.0 1.6 0.03 0.03 0.03 84 1018.6
20260505024945 13 96 0.0 1.6 0.00 0.00 0.00 83 1018.7
20260505024443 13 98 0.0 0.0 0.00 0.00 0.00 84 1018.7
20260505023941 13 98 0.0 0.0 0.00 0.00 0.00 84 1018.7
20260505023440 13 98 0.0 0.0 0.00 0.00 0.00 85 1018.8
20260505022942 13 98 0.0 4.8 0.00 0.00 0.00 84 1018.8
20260505022438 13 98 0.0 4.8 0.00 0.00 0.00 85 1018.9
20260505021937 13 161 0.0 0.0 0.00 0.00 0.00 85 1019.0
20260505021439 13 162 0.0 0.0 0.00 0.00 0.00 85 1019.0
20260505020936 13 162 0.0 0.0 0.00 0.00 0.00 85 1018.9
20260505020438 13 162 0.0 0.0 0.00 0.00 0.00 85 1019.0
20260505015937 13 162 0.0 0.0 0.00 0.00 0.00 85 1019.0
20260505014937 13 162 0.0 0.0 0.00 0.00 0.00 85 1019.1
20260505013937 13 162 0.0 0.0 0.00 0.00 0.00 84 1019.0
20260505013438 14 162 0.0 0.0 0.00 0.00 0.00 84 1019.1
20260505012933 14 162 0.0 0.0 0.00 0.00 0.00 83 1019.2
20260505012433 14 162 0.0 0.0 0.00 0.00 0.00 82 1019.2
20260505011933 14 162 0.0 0.0 0.00 0.00 0.00 82 1019.3
20260505011434 14 162 0.0 0.0 0.00 0.00 0.00 81 1019.4
20260505010933 14 162 0.0 0.0 0.00 0.00 0.00 81 1019.4
20260505010433 14 162 0.0 0.0 0.00 0.00 0.00 80 1019.5
20260505005433 14 162 0.0 0.0 0.00 0.00 0.00 80 1019.6
20260505004933 14 162 0.0 0.0 0.00 0.00 0.00 80 1019.6
20260505004429 14 162 0.0 0.0 0.00 0.00 0.00 81 1019.6
20260505003929 14 162 0.0 0.0 0.00 0.00 0.00 81 1019.7
20260505003428 14 162 0.0 0.0 0.00 0.00 0.00 81 1019.7
20260505002933 14 162 0.0 0.0 0.00 0.00 0.00 81 1019.7
20260505002428 14 162 0.0 0.0 0.00 0.00 0.00 81 1019.6
20260505001427 14 162 0.0 0.0 0.00 0.00 0.00 82 1019.8
20260505000925 14 162 0.0 0.0 0.00 0.00 0.00 81 1019.8
20260505000427 15 162 0.0 0.0 0.00 0.00 0.00 80 1020.0
20260504235921 15 162 0.0 0.0 0.00 0.00 0.00 79 1020.2
20260504235419 15 162 0.0 0.0 0.00 0.00 0.00 78 1020.3
20260504234921 15 162 0.0 0.0 0.00 0.00 0.00 78 1020.4
20260504233907 15 201 0.0 0.0 0.00 0.00 0.00 76 1020.6
20260504232854 15 212 0.0 0.0 0.00 0.00 0.00 76 1020.6
20260504232348 15 212 0.0 0.0 0.00 0.00 0.00 77 1020.6
20260504231844 15 219 0.0 0.0 0.00 0.00 0.00 76 1020.7
20260504231337 15 219 0.0 0.0 0.00 0.00 0.00 77 1020.7
20260504230830 15 219 0.0 0.0 0.00 0.00 0.00 76 1020.8
20260504230327 15 219 0.0 0.0 0.00 0.00 0.00 76 1020.9
20260504225829 15 219 0.0 0.0 0.00 0.00 0.00 76 1020.8
20260504225327 15 219 0.0 0.0 0.00 0.00 0.00 75 1020.9
20260504224825 15 219 0.0 0.0 0.00 0.00 0.00 75 1020.9
20260504224323 15 219 0.0 0.0 0.00 0.00 0.00 74 1021.0
20260504223823 15 219 0.0 0.0 0.00 0.00 0.00 74 1020.9
20260504223323 15 219 0.0 0.0 0.00 0.00 0.00 73 1021.0
20260504222821 15 219 0.0 0.0 0.00 0.00 0.00 73 1021.0
20260504221817 15 219 0.0 0.0 0.00 0.00 0.00 73 1021.1
20260504221315 15 219 0.0 0.0 0.00 0.00 0.00 73 1021.1
20260504220812 15 219 0.0 0.0 0.00 0.00 0.00 73 1021.2
20260504220311 15 219 0.0 0.0 0.00 0.00 0.00 73 1021.2
20260504215810 15 219 0.0 0.0 0.00 0.00 0.00 73 1021.1
20260504215310 15 219 0.0 0.0 0.00 0.00 0.00 73 1021.1
20260504214307 15 219 0.0 0.0 0.00 0.00 0.00 73 1021.1
20260504213307 15 219 0.0 0.0 0.00 0.00 0.00 71 1021.2
20260504212807 15 223 0.0 0.0 0.00 0.00 0.00 72 1021.3
20260504212320 15 223 0.0 0.0 0.00 0.00 0.00 72 1021.2
20260504211808 15 223 0.0 0.0 0.00 0.00 0.00 72 1021.2
20260504211307 15 224 0.0 0.0 0.00 0.00 0.00 72 1021.2
20260504210808 15 224 0.0 0.0 0.00 0.00 0.00 72 1021.2
20260504210320 15 224 0.0 0.0 0.00 0.00 0.00 72 1021.2
20260504205806 16 224 0.0 0.0 0.00 0.00 0.00 71 1021.3
20260504205309 16 224 0.0 0.0 0.00 0.00 0.00 69 1021.3
20260504204804 16 224 0.0 0.0 0.00 0.00 0.00 69 1021.5
20260504204303 16 224 0.0 0.0 0.00 0.00 0.00 69 1021.3
20260504203802 16 224 0.0 0.0 0.00 0.00 0.00 69 1021.3
20260504203303 16 224 0.0 0.0 0.00 0.00 0.00 69 1021.4
20260504202804 16 224 0.0 0.0 0.00 0.00 0.00 69 1021.5
20260504201802 16 224 0.0 0.0 0.00 0.00 0.00 68 1021.5
20260504201304 16 224 0.0 0.0 0.00 0.00 0.00 67 1021.5
20260504200301 16 224 0.0 0.0 0.00 0.00 0.00 65 1021.2
20260504195759 16 224 0.0 0.0 0.00 0.00 0.00 65 1021.1
20260504195300 16 224 0.0 0.0 0.00 0.00 0.00 64 1021.2
20260504194759 17 224 0.0 0.0 0.00 0.00 0.00 64 1021.0
20260504194300 17 224 0.0 0.0 0.00 0.00 0.00 62 1021.2
20260504193759 17 224 0.0 0.0 0.00 0.00 0.00 62 1021.2
20260504193259 17 224 0.0 0.0 0.00 0.00 0.00 61 1021.2
20260504192802 17 224 0.0 0.0 0.00 0.00 0.00 61 1021.0
20260504192320 17 224 0.0 0.0 0.00 0.00 0.00 61 1021.0
20260504191257 17 224 0.0 0.0 0.00 0.00 0.00 60 1020.8
20260504190756 17 224 0.0 0.0 0.00 0.00 0.00 59 1020.8
20260504185756 18 224 0.0 0.0 0.00 0.00 0.00 58 1020.7
20260504184252 18 280 0.0 8.0 0.00 0.00 0.00 57 1020.8
20260504183251 18 273 0.0 0.0 0.00 0.00 0.00 58 1020.7
20260504182748 18 272 0.0 4.8 0.00 0.00 0.00 58 1020.8
20260504182249 18 272 0.0 4.8 0.00 0.00 0.00 58 1020.7
20260504181750 18 171 0.0 3.2 0.00 0.00 0.00 58 1020.8
20260504181248 18 235 0.0 1.6 0.00 0.00 0.00 58 1020.8
20260504180745 18 191 0.0 6.4 0.00 0.00 0.00 59 1020.7
20260504180245 18 195 0.0 6.4 0.00 0.00 0.00 58 1020.7
20260504175744 18 147 0.0 0.0 0.00 0.00 0.00 58 1020.6
20260504175246 18 173 0.0 0.0 0.00 0.00 0.00 57 1020.6
20260504174742 18 173 0.0 0.0 0.00 0.00 0.00 56 1020.5
20260504174242 19 173 0.0 0.0 0.00 0.00 0.00 55 1020.5
20260504173231 19 172 0.0 0.0 0.00 0.00 0.00 53 1020.5
20260504172728 19 172 0.0 0.0 0.00 0.00 0.00 53 1020.5
20260504172229 19 171 0.0 0.0 0.00 0.00 0.00 52 1020.6
20260504171728 19 212 0.0 3.2 0.00 0.00 0.00 52 1020.6
20260504171230 19 272 0.0 3.2 0.00 0.00 0.00 52 1020.6
20260504170729 19 256 0.0 8.0 0.00 0.00 0.00 52 1020.7
20260504170230 19 170 0.0 8.0 0.00 0.00 0.00 51 1020.6
20260504160227 20 266 1.6 11.3 0.00 0.00 0.00 52 1020.5
20260504150224 21 283 1.6 9.7 0.00 0.00 0.00 60 1020.6
20260504141214 21 180 0.0 4.8 0.00 0.00 0.00 53 1020.7
20260504140716 21 279 1.6 11.3 0.00 0.00 0.00 52 1020.7
20260504140214 21 293 1.6 11.3 0.00 0.00 0.00 51 1020.7
20260504130709 22 146 1.6 6.4 0.00 0.00 0.00 45 1021.2
20260504130204 22 134 1.6 9.7 0.00 0.00 0.00 45 1021.2
20260504120140 21 275 3.2 12.9 0.00 0.00 0.00 51 1021.7
20260504110637 22 154 3.2 9.7 0.00 0.00 0.00 46 1022.0
20260504110135 22 155 3.2 9.7 0.00 0.00 0.00 45 1022.0
20260504100132 21 101 0.0 6.4 0.00 0.00 0.00 46 1022.4
20260504081515 18 137 0.0 6.4 0.00 0.00 0.00 73 1022.7
20260504081007 17 127 0.0 3.2 0.00 0.00 0.00 74 1022.7
20260504080502 17 128 0.0 3.2 0.00 0.00 0.00 75 1022.8
20260504070347 14 91 3.2 8.0 0.00 0.00 0.00 78 1022.6